DW9840 Weather Reports


Display with metric or nautical units.
time (UTC)temp
F
wind
direction
speed
MPH
gust
MPH
rain 1hr
in
rain 24hr
in
rain mn
in
humidity
%
barometer
mb
20260902221525 74 291 0.0 1.0 0.00 0.02 0.02 56 1015.8
20260902220020 75 193 0.0 7.0 0.00 0.02 0.02 55 1016.0
20260902214555 75 287 0.0 1.0 0.00 0.02 0.02 53 1016.1
20260902213049 75 247 0.0 1.0 0.00 0.02 0.02 53 1016.1
20260902211528 74 217 0.0 1.0 0.00 0.02 0.02 53 1016.1
20260902210023 74 301 0.0 1.0 0.00 0.02 0.02 54 1016.4
20260902204507 74 288 0.0 2.0 0.00 0.02 0.02 55 1016.3
20260902203101 74 186 0.0 0.0 0.00 0.02 0.02 54 1016.5
20260902201604 72 231 0.0 0.0 0.00 0.02 0.02 55 1016.5
20260902200051 72 206 0.0 0.0 0.00 0.02 0.02 54 1016.6
20260902194547 70 197 0.0 1.0 0.00 0.02 0.02 53 1016.7
20260902193042 70 181 0.0 1.0 0.00 0.02 0.02 50 1016.7
20260902191539 70 293 0.0 1.0 0.00 0.02 0.02 41 1016.9
20260902190033 71 278 0.0 1.0 0.00 0.02 0.02 26 1016.9
20260902184510 72 176 0.0 1.0 0.00 0.02 0.02 3 1016.9
20260902183007 73 212 0.0 0.0 0.00 0.02 0.02 3 1016.9
20260902181552 71 239 0.0 0.0 0.00 0.02 0.02 3 1016.9
20260902180040 70 269 0.0 0.0 0.00 0.02 0.02 3 1016.8
20260902174518 70 231 0.0 1.0 0.00 0.02 0.02 3 1016.7
20260902173023 70 232 0.0 0.0 0.00 0.02 0.02 3 1016.6
20260902171605 69 183 0.0 0.0 0.00 0.02 0.02 3 1016.5
20260902170048 68 236 0.0 1.0 0.00 0.02 0.02 3 1016.3
20260902164525 67 203 0.0 1.0 0.00 0.02 0.02 3 1016.2
20260902163021 66 200 0.0 0.0 0.00 0.02 0.02 3 1016.0
20260902161600 65 221 0.0 0.0 0.01 0.02 0.02 3 1016.0
20260902160113 65 211 0.0 1.0 0.02 0.02 0.02 3 1016.1
20260902154539 65 203 0.0 0.0 0.02 0.02 0.02 3 1016.0
20260902153035 65 146 0.0 0.0 0.02 0.02 0.02 3 1016.0
20260902151529 65 120 0.0 0.0 0.01 0.01 0.01 3 1015.8
20260902150026 65 214 0.0 0.0 0.00 0.00 0.00 3 1015.8
20260902144520 0 0.0 0.0 0.00 0.00 0.00 1015.6
20260902143016 0 0.0 0.0 0.00 0.00 0.00 1015.5
20260902141514 0 0.0 0.0 0.00 0.00 0.00 1015.1
20260902140008 0 0.0 0.0 0.00 0.00 0.00 1015.0
20260902134549 0 0.0 0.0 0.00 0.00 0.00 1014.9
20260902133052 0 0.0 0.0 0.00 0.00 0.00 1014.9
20260902131520 0 0.0 0.0 0.00 0.00 0.00 1014.9
20260902130016 0 0.0 0.0 0.00 0.00 0.00 1014.7
20260902124554 0 0.0 0.0 0.00 0.00 0.00 1014.7
20260902123101 0 0.0 0.0 0.00 0.00 0.00 1014.7
20260902121529 0 0.0 0.0 0.00 0.00 0.00 1014.8
20260902120033 0 0.0 0.0 0.00 0.00 0.00 1014.8
20260902114503 63 143 0.0 0.0 0.00 0.00 0.00 3 1014.8
20260902113103 65 181 0.0 0.0 0.00 0.00 0.00 3 1014.9
20260902111544 65 181 0.0 0.0 0.00 0.00 0.00 3 1014.8
20260902110054 65 129 0.0 0.0 0.00 0.00 0.00 3 1014.8
20260902104512 66 129 0.0 0.0 0.00 0.00 0.00 3 1014.9
20260902103008 66 129 0.0 0.0 0.00 0.00 0.00 3 1015.1
20260902101545 66 129 0.0 0.0 0.00 0.00 0.00 3 1015.2
20260902100041 66 129 0.0 0.0 0.00 0.00 0.00 3 1015.2
20260902094531 65 199 0.0 0.0 0.00 0.00 0.00 3 1015.3
20260902093021 65 199 0.0 0.0 0.00 0.00 0.00 3 1015.2
20260902091515 65 199 0.0 0.0 0.00 0.00 0.00 3 1015.3
20260902090011 65 198 0.0 0.0 0.00 0.00 0.00 3 1015.5
20260902084506 65 198 0.0 0.0 0.00 0.00 0.00 3 1015.7
20260902083004 65 198 0.0 0.0 0.00 0.00 0.00 3 1015.7
20260902081557 65 198 0.0 0.0 0.00 0.00 0.00 3 1015.6
20260902080108 65 198 0.0 0.0 0.00 0.00 0.00 3 1015.7
20260902074531 65 199 0.0 0.0 0.00 0.00 0.00 3 1015.5
20260902073027 64 199 0.0 0.0 0.00 0.00 0.00 3 1015.5
20260902071505 64 199 0.0 0.0 0.00 0.00 0.00 3 1015.6
20260902070001 64 198 0.0 0.0 0.00 0.00 0.00 3 1015.5
20260902064540 64 199 0.0 0.0 0.00 0.00 0.00 3 1015.5
20260902063036 64 198 0.0 0.0 0.00 0.00 0.00 3 1015.5
20260902061514 64 198 0.0 0.0 0.00 0.00 0.00 3 1015.5
20260902060010 64 199 0.0 0.0 0.00 0.00 0.00 3 1015.4
20260902054616 64 198 0.0 0.0 0.00 0.00 0.00 3 1015.5
20260902053043 65 198 0.0 0.0 0.00 0.00 0.00 3 1015.6
20260902051539 65 198 0.0 0.0 0.00 0.00 0.00 3 1015.6
20260902050016 66 198 0.0 0.0 0.00 0.00 0.00 3 1015.6
20260902044512 66 158 0.0 0.0 0.00 0.00 0.00 3 1015.6
20260902043057 67 218 0.0 1.0 0.00 0.00 0.00 3 1015.6
20260902041547 67 208 0.0 0.0 0.00 0.00 0.00 3 1015.4
20260902040034 67 141 0.0 0.0 0.00 0.00 0.00 3 1015.1
20260902034535 67 193 0.0 0.0 0.00 0.00 0.00 3 1015.1
20260902033037 67 163 0.0 0.0 0.00 0.00 0.00 3 1015.1
20260902031533 67 198 0.0 0.0 0.00 0.00 0.00 3 1015.0
20260902030029 67 201 0.0 0.0 0.00 0.00 0.00 3 1014.7
20260902024524 66 266 0.0 0.0 0.00 0.00 0.00 19 1014.8
20260902023021 66 287 0.0 0.0 0.00 0.00 0.00 32 1014.9
20260902021518 67 238 0.0 8.0 0.00 0.00 0.00 45 1014.8
20260902020055 67 290 0.0 3.0 0.00 0.00 0.00 49 1014.7
20260902014551 67 224 0.0 2.0 0.00 0.00 0.00 53 1014.7
20260902013028 67 255 0.0 5.0 0.00 0.00 0.00 58 1014.8
20260902011523 68 288 0.0 2.0 0.00 0.00 0.00 60 1014.8
20260902010006 68 216 0.0 4.0 0.00 0.00 0.00 61 1014.7
20260902004505 68 129 0.0 6.0 0.00 0.00 0.00 60 1014.6
20260902003100 68 252 0.0 4.0 0.00 0.00 0.00 61 1014.4
20260902001554 69 271 0.0 4.0 0.00 0.00 0.00 60 1014.5
20260902000053 70 261 0.0 3.0 0.00 0.00 0.00 57 1014.4
20260901234553 71 239 0.0 2.0 0.00 0.00 0.00 57 1014.3
20260901233040 72 211 0.0 10.0 0.00 0.00 0.00 55 1014.5
20260901231536 72 240 0.0 5.0 0.00 0.00 0.00 55 1014.4
20260901230032 71 256 0.0 4.0 0.00 0.00 0.00 58 1014.5
20260901224512 71 249 0.0 3.0 0.00 0.00 0.00 56 1014.5
20260901223048 70 195 0.0 6.0 0.00 0.00 0.00 55 1014.6